Time,TemperatureF,DewpointF,PressureIn,WindDirection,WindDirectionDegrees,WindSpeedMPH,WindSpeedGustMPH,Humidity,HourlyPrecipIn,Conditions,Clouds,dailyrainin,SoftwareType,DateUTC
2013-05-01 00:00:00,70.5,55.5,29.83,SSW,194,5.0,5.0,59,0.00,,,0.00,Wunderground v.1.15,2013-05-01 05:00:00,
2013-05-01 00:05:00,70.3,55.8,29.84,SSW,209,5.0,5.0,60,0.00,,,0.00,Wunderground v.1.15,2013-05-01 05:05:00,
2013-05-01 00:10:00,70.3,55.8,29.84,South,180,5.0,6.0,60,0.00,,,0.00,Wunderground v.1.15,2013-05-01 05:10:00,
2013-05-01 00:20:00,70.1,55.6,29.84,SSW,193,6.0,6.0,60,0.00,,,0.00,Wunderground v.1.15,2013-05-01 05:20:00,
2013-05-01 00:25:00,70.0,55.9,29.84,South,175,5.0,6.0,61,0.00,,,0.00,Wunderground v.1.15,2013-05-01 05:25:00,
2013-05-01 00:30:00,69.9,55.8,29.84,SW,229,4.0,4.0,61,0.00,,,0.00,Wunderground v.1.15,2013-05-01 05:30:00,
2013-05-01 00:35:00,69.8,55.7,29.84,SSW,202,3.0,4.0,61,0.00,,,0.00,Wunderground v.1.15,2013-05-01 05:35:00,
2013-05-01 00:40:00,69.7,55.6,29.84,South,186,4.0,4.0,61,0.00,,,0.00,Wunderground v.1.15,2013-05-01 05:40:00,
2013-05-01 00:45:00,69.7,56.1,29.84,SW,221,4.0,5.0,62,0.00,,,0.00,Wunderground v.1.15,2013-05-01 05:45:00,
2013-05-01 00:50:00,69.6,56.0,29.84,SW,226,3.0,3.0,62,0.00,,,0.00,Wunderground v.1.15,2013-05-01 05:50:00,
2013-05-01 00:55:00,69.5,55.9,29.84,SSW,208,3.0,3.0,62,0.00,,,0.00,Wunderground v.1.15,2013-05-01 05:55:00,
2013-05-01 01:00:00,69.4,55.8,29.84,SW,226,4.0,6.0,62,0.00,,,0.00,Wunderground v.1.15,2013-05-01 06:00:00,
2013-05-01 01:10:00,69.2,55.6,29.84,South,183,4.0,4.0,62,0.00,,,0.00,Wunderground v.1.15,2013-05-01 06:10:00,
2013-05-01 01:15:00,69.2,55.6,29.84,South,184,4.0,5.0,62,0.00,,,0.00,Wunderground v.1.15,2013-05-01 06:15:00,
2013-05-01 01:19:00,69.1,55.5,29.84,SSW,200,4.0,4.0,62,0.00,,,0.00,Wunderground v.1.15,2013-05-01 06:19:00,
2013-05-01 01:25:00,69.0,55.4,29.85,South,190,4.0,4.0,62,0.00,,,0.00,Wunderground v.1.15,2013-05-01 06:25:00,
2013-05-01 01:30:00,68.8,55.7,29.84,South,173,3.0,5.0,63,0.00,,,0.00,Wunderground v.1.15,2013-05-01 06:30:00,
2013-05-01 01:35:00,68.7,55.6,29.84,SSW,201,3.0,5.0,63,0.00,,,0.00,Wunderground v.1.15,2013-05-01 06:35:00,
2013-05-01 01:45:00,68.5,55.8,29.86,NW,315,2.0,3.0,64,0.00,,,0.00,Wunderground v.1.15,2013-05-01 06:45:00,
2013-05-01 01:50:00,68.0,55.8,29.86,WSW,250,1.0,1.0,65,0.00,,,0.00,Wunderground v.1.15,2013-05-01 06:50:00,
2013-05-01 01:55:00,67.6,55.4,29.86,WNW,286,0.0,1.0,65,0.00,,,0.00,Wunderground v.1.15,2013-05-01 06:55:00,
2013-05-01 02:00:00,67.2,55.5,29.87,WNW,293,0.0,0.0,66,0.00,,,0.00,Wunderground v.1.15,2013-05-01 07:00:00,
2013-05-01 02:05:00,67.0,55.3,29.87,West,259,1.0,1.0,66,0.00,,,0.00,Wunderground v.1.15,2013-05-01 07:05:00,
2013-05-01 02:10:00,66.8,55.5,29.87,West,259,0.0,0.0,67,0.00,,,0.00,Wunderground v.1.15,2013-05-01 07:10:00,
2013-05-01 02:15:00,66.6,55.3,29.87,West,259,0.0,0.0,67,0.00,,,0.00,Wunderground v.1.15,2013-05-01 07:15:00,
2013-05-01 02:20:00,66.3,55.4,29.87,West,259,0.0,0.0,68,0.00,,,0.00,Wunderground v.1.15,2013-05-01 07:20:00,
2013-05-01 02:25:00,66.0,55.1,29.87,West,259,0.0,0.0,68,0.00,,,0.00,Wunderground v.1.15,2013-05-01 07:25:00,
2013-05-01 02:30:00,65.4,51.1,29.88,NNE,19,2.0,2.0,60,0.00,,,0.00,Wunderground v.1.15,2013-05-01 07:30:00,
2013-05-01 02:35:00,64.8,50.1,29.87,NNE,19,2.0,2.0,59,0.00,,,0.00,Wunderground v.1.15,2013-05-01 07:35:00,
2013-05-01 02:40:00,64.2,50.0,29.87,NNE,19,0.0,0.0,60,0.00,,,0.00,Wunderground v.1.15,2013-05-01 07:40:00,
2013-05-01 02:45:00,63.6,49.9,29.88,NNW,348,0.0,1.0,61,0.00,,,0.00,Wunderground v.1.15,2013-05-01 07:45:00,
2013-05-01 02:50:00,63.0,48.4,29.88,NNE,24,2.0,2.0,59,0.00,,,0.00,Wunderground v.1.15,2013-05-01 07:50:00,
2013-05-01 02:55:00,62.5,47.5,29.87,NNE,24,1.0,2.0,58,0.00,,,0.00,Wunderground v.1.15,2013-05-01 07:55:00,
2013-05-01 03:00:00,62.0,48.0,29.88,NNE,22,0.0,2.0,60,0.00,,,0.00,Wunderground v.1.15,2013-05-01 08:00:00,
2013-05-01 04:30:00,57.0,45.7,29.91,North,355,0.0,0.0,66,0.00,,,0.00,Wunderground v.1.15,2013-05-01 09:30:00,
2013-05-01 04:35:00,56.8,46.0,29.91,North,355,0.0,0.0,67,0.00,,,0.00,Wunderground v.1.15,2013-05-01 09:35:00,
2013-05-01 04:40:00,56.5,45.7,29.92,North,355,0.0,0.0,67,0.00,,,0.00,Wunderground v.1.15,2013-05-01 09:40:00,
2013-05-01 04:50:00,56.1,45.7,29.91,North,355,0.0,0.0,68,0.00,,,0.00,Wunderground v.1.15,2013-05-01 09:50:00,
2013-05-01 04:55:00,56.1,45.7,29.92,North,355,0.0,0.0,68,0.00,,,0.00,Wunderground v.1.15,2013-05-01 09:55:00,
2013-05-01 05:00:00,56.0,45.6,29.91,North,355,0.0,0.0,68,0.00,,,0.00,Wunderground v.1.15,2013-05-01 10:00:00,
2013-05-01 05:05:00,55.9,45.5,29.91,North,355,0.0,0.0,68,0.00,,,0.00,Wunderground v.1.15,2013-05-01 10:05:00,
2013-05-01 05:10:00,55.8,45.8,29.91,North,355,0.0,0.0,69,0.00,,,0.00,Wunderground v.1.15,2013-05-01 10:10:00,
2013-05-01 05:15:00,55.6,45.6,29.92,North,355,0.0,0.0,69,0.00,,,0.00,Wunderground v.1.15,2013-05-01 10:15:00,
2013-05-01 05:25:00,55.2,45.6,29.92,North,355,0.0,0.0,70,0.00,,,0.00,Wunderground v.1.15,2013-05-01 10:25:00,
2013-05-01 05:30:00,55.1,45.9,29.93,North,355,0.0,0.0,71,0.00,,,0.00,Wunderground v.1.15,2013-05-01 10:30:00,
2013-05-01 05:35:00,54.9,45.7,29.93,North,355,0.0,0.0,71,0.00,,,0.00,Wunderground v.1.15,2013-05-01 10:35:00,
2013-05-01 05:40:00,54.7,45.5,29.94,North,355,0.0,0.0,71,0.00,,,0.00,Wunderground v.1.15,2013-05-01 10:40:00,
2013-05-01 05:45:00,54.5,45.7,29.94,North,355,0.0,0.0,72,0.00,,,0.00,Wunderground v.1.15,2013-05-01 10:45:00,
2013-05-01 05:50:00,54.4,45.2,29.94,North,355,0.0,1.0,71,0.00,,,0.00,Wunderground v.1.15,2013-05-01 10:50:00,
2013-05-01 05:55:00,54.3,45.5,29.94,North,355,0.0,1.0,72,0.00,,,0.00,Wunderground v.1.15,2013-05-01 10:55:00,
2013-05-01 06:00:00,54.3,45.1,29.95,North,355,0.0,0.0,71,0.00,,,0.00,Wunderground v.1.15,2013-05-01 11:00:00,
2013-05-01 06:05:00,54.3,45.5,29.95,North,355,0.0,0.0,72,0.00,,,0.00,Wunderground v.1.15,2013-05-01 11:05:00,
2013-05-01 06:09:00,54.3,45.1,29.95,North,351,0.0,0.0,71,0.00,,,0.00,Wunderground v.1.15,2013-05-01 11:09:00,
2013-05-01 06:15:00,54.4,45.2,29.95,North,351,1.0,1.0,71,0.00,,,0.00,Wunderground v.1.15,2013-05-01 11:15:00,
2013-05-01 06:25:00,54.6,45.4,29.96,North,351,0.0,4.0,71,0.00,,,0.00,Wunderground v.1.15,2013-05-01 11:25:00,
2013-05-01 06:30:00,54.9,45.3,29.96,NNW,348,2.0,5.0,70,0.00,,,0.00,Wunderground v.1.15,2013-05-01 11:30:00,
2013-05-01 06:35:00,55.2,45.6,29.96,North,360,3.0,5.0,70,0.00,,,0.00,Wunderground v.1.15,2013-05-01 11:35:00,
2013-05-01 06:40:00,55.4,45.4,29.97,NNW,348,2.0,4.0,69,0.00,,,0.00,Wunderground v.1.15,2013-05-01 11:40:00,
2013-05-01 06:45:00,55.7,45.7,29.97,NNE,21,2.0,4.0,69,0.00,,,0.00,Wunderground v.1.15,2013-05-01 11:45:00,
2013-05-01 06:50:00,55.9,45.9,29.97,NNE,24,2.0,2.0,69,0.00,,,0.00,Wunderground v.1.15,2013-05-01 11:50:00,
2013-05-01 06:55:00,56.2,45.8,29.97,North,350,2.0,4.0,68,0.00,,,0.00,Wunderground v.1.15,2013-05-01 11:55:00,
2013-05-01 07:00:00,56.4,46.0,29.97,NNE,18,2.0,2.0,68,0.00,,,0.00,Wunderground v.1.15,2013-05-01 12:00:00,
2013-05-01 07:10:00,56.9,46.4,29.97,North,5,2.0,2.0,68,0.00,,,0.00,Wunderground v.1.15,2013-05-01 12:10:00,
2013-05-01 07:15:00,57.1,46.2,29.98,NNE,20,2.0,2.0,67,0.00,,,0.00,Wunderground v.1.15,2013-05-01 12:15:00,
2013-05-01 07:20:00,57.2,46.7,29.99,North,355,2.0,2.0,68,0.00,,,0.00,Wunderground v.1.15,2013-05-01 12:20:00,
2013-05-01 07:30:00,57.5,47.0,29.99,NE,36,3.0,3.0,68,0.00,,,0.00,Wunderground v.1.15,2013-05-01 12:30:00,
2013-05-01 07:35:00,57.5,46.6,29.99,NNE,22,2.0,3.0,67,0.00,,,0.00,Wunderground v.1.15,2013-05-01 12:35:00,
2013-05-01 07:40:00,57.6,47.1,30.00,NNE,13,2.0,4.0,68,0.00,,,0.00,Wunderground v.1.15,2013-05-01 12:40:00,
2013-05-01 07:45:00,57.7,47.2,30.00,North,5,2.0,4.0,68,0.00,,,0.00,Wunderground v.1.15,2013-05-01 12:45:00,
2013-05-01 07:50:00,57.8,47.3,30.00,NE,38,2.0,2.0,68,0.00,,,0.00,Wunderground v.1.15,2013-05-01 12:50:00,
2013-05-01 07:55:00,58.0,47.5,30.00,NE,43,2.0,4.0,68,0.00,,,0.00,Wunderground v.1.15,2013-05-01 12:55:00,
2013-05-01 08:00:00,58.1,47.6,30.00,NNW,347,2.0,2.0,68,0.00,,,0.00,Wunderground v.1.15,2013-05-01 13:00:00,
2013-05-01 08:10:00,58.7,47.8,30.00,NNE,22,2.0,5.0,67,0.00,,,0.00,Wunderground v.1.15,2013-05-01 13:10:00,
2013-05-01 08:15:00,59.0,48.4,30.00,NE,42,2.0,5.0,68,0.00,,,0.00,Wunderground v.1.15,2013-05-01 13:15:00,
2013-05-01 08:20:00,59.0,48.1,30.01,NNE,32,3.0,3.0,67,0.00,,,0.00,Wunderground v.1.15,2013-05-01 13:20:00,
2013-05-01 08:25:00,59.1,48.1,30.01,NNW,331,3.0,5.0,67,0.00,,,0.00,Wunderground v.1.15,2013-05-01 13:25:00,
2013-05-01 08:30:00,59.2,48.2,30.01,NNE,29,4.0,4.0,67,0.00,,,0.00,Wunderground v.1.15,2013-05-01 13:30:00,
2013-05-01 08:35:00,59.4,48.4,30.01,North,360,3.0,7.0,67,0.00,,,0.00,Wunderground v.1.15,2013-05-01 13:35:00,
2013-05-01 08:40:00,59.7,48.7,30.01,NNE,17,3.0,3.0,67,0.00,,,0.00,Wunderground v.1.15,2013-05-01 13:40:00,
2013-05-01 08:45:00,59.9,48.9,30.02,NE,43,5.0,6.0,67,0.00,,,0.00,Wunderground v.1.15,2013-05-01 13:45:00,
2013-05-01 08:50:00,60.1,48.7,30.01,NNW,345,4.0,4.0,66,0.00,,,0.00,Wunderground v.1.15,2013-05-01 13:50:00,
2013-05-01 08:55:00,60.3,49.3,30.01,North,350,3.0,4.0,67,0.00,,,0.00,Wunderground v.1.15,2013-05-01 13:55:00,
2013-05-01 09:00:00,60.6,49.6,30.01,NE,39,2.0,2.0,67,0.00,,,0.00,Wunderground v.1.15,2013-05-01 14:00:00,
2013-05-01 09:05:00,60.9,49.5,30.01,NNW,347,2.0,6.0,66,0.00,,,0.00,Wunderground v.1.15,2013-05-01 14:05:00,
2013-05-01 09:10:00,61.2,49.7,30.02,NNE,28,2.0,3.0,66,0.00,,,0.00,Wunderground v.1.15,2013-05-01 14:10:00,
2013-05-01 09:15:00,61.7,49.8,30.02,NE,38,2.0,3.0,65,0.00,,,0.00,Wunderground v.1.15,2013-05-01 14:15:00,
2013-05-01 09:25:00,62.4,50.1,30.02,NE,54,3.0,3.0,64,0.00,,,0.00,Wunderground v.1.15,2013-05-01 14:25:00,
2013-05-01 09:30:00,62.9,50.1,30.02,NNE,17,2.0,2.0,63,0.00,,,0.00,Wunderground v.1.15,2013-05-01 14:30:00,
2013-05-01 09:40:00,63.6,50.8,30.02,NNE,29,2.0,2.0,63,0.00,,,0.00,Wunderground v.1.15,2013-05-01 14:40:00,
2013-05-01 09:45:00,64.1,50.4,30.03,NE,35,2.0,2.0,61,0.00,,,0.00,Wunderground v.1.15,2013-05-01 14:45:00,
2013-05-01 09:50:00,64.6,50.8,30.03,ENE,57,1.0,1.0,61,0.00,,,0.00,Wunderground v.1.15,2013-05-01 14:50:00,
2013-05-01 09:55:00,64.9,51.6,30.03,NNE,28,2.0,2.0,62,0.00,,,0.00,Wunderground v.1.15,2013-05-01 14:55:00,
2013-05-01 10:00:00,65.4,50.7,30.03,NE,53,2.0,2.0,59,0.00,,,0.00,Wunderground v.1.15,2013-05-01 15:00:00,
2013-05-01 10:05:00,65.4,51.6,30.03,NE,53,1.0,2.0,61,0.00,,,0.00,Wunderground v.1.15,2013-05-01 15:05:00,
2013-05-01 10:10:00,65.8,51.1,30.03,NNE,32,1.0,4.0,59,0.00,,,0.00,Wunderground v.1.15,2013-05-01 15:10:00,
2013-05-01 10:15:00,66.3,52.0,30.03,NNE,22,2.0,4.0,60,0.00,,,0.00,Wunderground v.1.15,2013-05-01 15:15:00,
2013-05-01 10:20:00,66.8,52.0,30.03,NE,34,2.0,2.0,59,0.00,,,0.00,Wunderground v.1.15,2013-05-01 15:20:00,
2013-05-01 10:25:00,67.1,52.7,30.03,North,355,1.0,2.0,60,0.00,,,0.00,Wunderground v.1.15,2013-05-01 15:25:00,
2013-05-01 10:30:00,67.7,52.4,30.03,North,5,3.0,3.0,58,0.00,,,0.00,Wunderground v.1.15,2013-05-01 15:30:00,
2013-05-01 10:35:00,68.2,51.9,30.03,NE,43,3.0,3.0,56,0.00,,,0.00,Wunderground v.1.15,2013-05-01 15:35:00,
2013-05-01 10:40:00,68.9,51.6,30.03,NNE,30,2.0,2.0,54,0.00,,,0.00,Wunderground v.1.15,2013-05-01 15:40:00,
2013-05-01 10:45:00,69.1,53.7,30.03,NE,40,1.0,2.0,58,0.00,,,0.00,Wunderground v.1.15,2013-05-01 15:45:00,
2013-05-01 10:50:00,69.0,53.6,30.03,NNE,15,2.0,2.0,58,0.00,,,0.00,Wunderground v.1.15,2013-05-01 15:50:00,
2013-05-01 10:55:00,69.5,52.1,30.03,North,350,2.0,2.0,54,0.00,,,0.00,Wunderground v.1.15,2013-05-01 15:55:00,
2013-05-01 11:00:00,70.0,52.6,30.03,NNE,30,1.0,2.0,54,0.00,,,0.00,Wunderground v.1.15,2013-05-01 16:00:00,
2013-05-01 11:05:00,70.5,53.6,30.03,NE,45,1.0,2.0,55,0.00,,,0.00,Wunderground v.1.15,2013-05-01 16:05:00,
2013-05-01 11:15:00,70.9,54.9,30.03,NE,44,1.0,1.0,57,0.00,,,0.00,Wunderground v.1.15,2013-05-01 16:15:00,
2013-05-01 11:20:00,70.8,52.3,30.03,East,79,1.0,1.0,52,0.00,,,0.00,Wunderground v.1.15,2013-05-01 16:20:00,
2013-05-01 11:25:00,70.8,53.3,30.03,East,79,1.0,1.0,54,0.00,,,0.00,Wunderground v.1.15,2013-05-01 16:25:00,
2013-05-01 11:30:00,71.1,53.6,30.03,ENE,74,1.0,2.0,54,0.00,,,0.00,Wunderground v.1.15,2013-05-01 16:30:00,
2013-05-01 11:35:00,71.7,53.7,30.03,NE,41,1.0,2.0,53,0.00,,,0.00,Wunderground v.1.15,2013-05-01 16:35:00,
2013-05-01 11:39:00,72.2,54.1,30.03,NE,46,1.0,2.0,53,0.00,,,0.00,Wunderground v.1.15,2013-05-01 16:39:00,
2013-05-01 11:45:00,72.9,53.7,30.03,NE,53,1.0,2.0,51,0.00,,,0.00,Wunderground v.1.15,2013-05-01 16:45:00,
2013-05-01 11:50:00,73.1,54.4,30.03,SSE,162,1.0,1.0,52,0.00,,,0.00,Wunderground v.1.15,2013-05-01 16:50:00,
2013-05-01 11:55:00,72.9,55.8,30.03,SE,146,1.0,1.0,55,0.00,,,0.00,Wunderground v.1.15,2013-05-01 16:55:00,
2013-05-01 12:00:00,73.2,54.5,30.03,SE,145,0.0,0.0,52,0.00,,,0.00,Wunderground v.1.15,2013-05-01 17:00:00,
2013-05-01 12:05:00,73.2,54.5,30.02,SE,143,0.0,3.0,52,0.00,,,0.00,Wunderground v.1.15,2013-05-01 17:05:00,
2013-05-01 12:15:00,74.1,55.3,30.03,SE,138,1.0,1.0,52,0.00,,,0.00,Wunderground v.1.15,2013-05-01 17:15:00,
2013-05-01 12:20:00,73.9,54.1,30.03,SSE,165,1.0,1.0,50,0.00,,,0.00,Wunderground v.1.15,2013-05-01 17:20:00,
2013-05-01 12:25:00,74.2,58.0,30.03,South,169,1.0,1.0,57,0.00,,,0.00,Wunderground v.1.15,2013-05-01 17:25:00,
2013-05-01 12:30:00,75.0,55.1,30.03,South,175,1.0,1.0,50,0.00,,,0.00,Wunderground v.1.15,2013-05-01 17:30:00,
2013-05-01 12:35:00,74.8,54.4,30.03,South,175,1.0,1.0,49,0.00,,,0.00,Wunderground v.1.15,2013-05-01 17:35:00,
2013-05-01 12:40:00,74.4,55.1,30.02,SSE,163,1.0,1.0,51,0.00,,,0.00,Wunderground v.1.15,2013-05-01 17:40:00,
2013-05-01 12:45:00,74.4,56.7,30.02,SE,143,2.0,4.0,54,0.00,,,0.00,Wunderground v.1.15,2013-05-01 17:45:00,
2013-05-01 12:50:00,74.7,55.4,30.02,SSE,168,1.0,2.0,51,0.00,,,0.00,Wunderground v.1.15,2013-05-01 17:50:00,
2013-05-01 12:55:00,74.1,53.7,30.02,South,175,2.0,2.0,49,0.00,,,0.00,Wunderground v.1.15,2013-05-01 17:55:00,
2013-05-01 13:00:00,73.8,56.1,30.02,South,175,2.0,2.0,54,0.00,,,0.00,Wunderground v.1.15,2013-05-01 18:00:00,
2013-05-01 13:05:00,74.2,54.9,30.02,SSW,192,1.0,4.0,51,0.00,,,0.00,Wunderground v.1.15,2013-05-01 18:05:00,
2013-05-01 13:10:00,74.6,55.3,30.02,South,184,1.0,1.0,51,0.00,,,0.00,Wunderground v.1.15,2013-05-01 18:10:00,
2013-05-01 13:15:00,74.8,54.4,30.02,SSW,194,1.0,1.0,49,0.00,,,0.00,Wunderground v.1.15,2013-05-01 18:15:00,
2013-05-01 13:20:00,75.6,56.2,30.03,WSW,244,1.0,1.0,51,0.00,,,0.00,Wunderground v.1.15,2013-05-01 18:20:00,
2013-05-01 13:25:00,76.4,55.8,30.03,North,350,2.0,5.0,49,0.00,,,0.00,Wunderground v.1.15,2013-05-01 18:25:00,
2013-05-01 13:30:00,77.3,56.1,30.03,NNW,344,2.0,2.0,48,0.00,,,0.00,Wunderground v.1.15,2013-05-01 18:30:00,
2013-05-01 13:35:00,78.2,58.0,30.02,West,280,2.0,2.0,50,0.00,,,0.00,Wunderground v.1.15,2013-05-01 18:35:00,
2013-05-01 13:40:00,78.7,57.4,30.03,WSW,248,2.0,2.0,48,0.00,,,0.00,Wunderground v.1.15,2013-05-01 18:40:00,
2013-05-01 13:45:00,78.7,56.8,30.03,SSW,212,2.0,2.0,47,0.00,,,0.00,Wunderground v.1.15,2013-05-01 18:45:00,
2013-05-01 13:50:00,78.7,55.6,30.03,WNW,283,1.0,2.0,45,0.00,,,0.00,Wunderground v.1.15,2013-05-01 18:50:00,
2013-05-01 13:55:00,78.7,56.2,30.03,WSW,253,1.0,2.0,46,0.00,,,0.00,Wunderground v.1.15,2013-05-01 18:55:00,
2013-05-01 14:00:00,79.1,58.3,30.03,North,355,1.0,1.0,49,0.00,,,0.00,Wunderground v.1.15,2013-05-01 19:00:00,
2013-05-01 14:05:00,79.8,57.2,30.02,North,355,0.0,1.0,46,0.00,,,0.00,Wunderground v.1.15,2013-05-01 19:05:00,
2013-05-01 14:10:00,80.2,56.3,30.02,NNW,341,1.0,1.0,44,0.00,,,0.00,Wunderground v.1.15,2013-05-01 19:10:00,
2013-05-01 14:15:00,80.3,57.0,30.02,NNW,331,1.0,1.0,45,0.00,,,0.00,Wunderground v.1.15,2013-05-01 19:15:00,
2013-05-01 14:20:00,80.5,56.6,30.02,NNW,336,2.0,2.0,44,0.00,,,0.00,Wunderground v.1.15,2013-05-01 19:20:00,
2013-05-01 14:25:00,80.3,56.4,30.01,NW,325,1.0,2.0,44,0.00,,,0.00,Wunderground v.1.15,2013-05-01 19:25:00,
2013-05-01 14:35:00,81.1,57.1,30.02,North,355,3.0,4.0,44,0.00,,,0.00,Wunderground v.1.15,2013-05-01 19:35:00,
2013-05-01 14:45:00,81.1,57.1,30.02,NNE,24,3.0,4.0,44,0.00,,,0.00,Wunderground v.1.15,2013-05-01 19:45:00,
2013-05-01 14:50:00,80.8,56.2,30.02,NNE,30,3.0,3.0,43,0.00,,,0.00,Wunderground v.1.15,2013-05-01 19:50:00,
2013-05-01 14:55:00,80.2,56.3,30.02,NNE,30,2.0,3.0,44,0.00,,,0.00,Wunderground v.1.15,2013-05-01 19:55:00,
2013-05-01 15:00:00,80.1,57.5,30.02,NNE,30,1.0,2.0,46,0.00,,,0.00,Wunderground v.1.15,2013-05-01 20:00:00,
2013-05-01 15:05:00,80.5,58.4,30.02,NNE,30,0.0,2.0,47,0.00,,,0.00,Wunderground v.1.15,2013-05-01 20:05:00,
2013-05-01 15:10:00,80.1,58.0,30.02,NNE,30,1.0,1.0,47,0.00,,,0.00,Wunderground v.1.15,2013-05-01 20:10:00,
2013-05-01 15:15:00,80.1,56.2,30.02,NNE,28,1.0,3.0,44,0.00,,,0.00,Wunderground v.1.15,2013-05-01 20:15:00,
2013-05-01 15:20:00,80.3,58.2,30.02,NNW,346,1.0,1.0,47,0.00,,,0.00,Wunderground v.1.15,2013-05-01 20:20:00,
2013-05-01 15:25:00,80.7,57.4,30.01,NNW,346,1.0,1.0,45,0.00,,,0.00,Wunderground v.1.15,2013-05-01 20:25:00,
2013-05-01 15:30:00,81.1,57.1,30.01,NNW,346,0.0,0.0,44,0.00,,,0.00,Wunderground v.1.15,2013-05-01 20:30:00,
2013-05-01 15:35:00,81.3,56.7,30.01,NNW,346,1.0,1.0,43,0.00,,,0.00,Wunderground v.1.15,2013-05-01 20:35:00,
2013-05-01 15:40:00,81.4,57.4,30.01,NNW,333,1.0,1.0,44,0.00,,,0.00,Wunderground v.1.15,2013-05-01 20:40:00,
2013-05-01 15:45:00,81.7,58.3,30.01,NNW,338,1.0,1.0,45,0.00,,,0.00,Wunderground v.1.15,2013-05-01 20:45:00,
2013-05-01 15:50:00,82.1,58.7,30.01,NNW,338,0.0,0.0,45,0.00,,,0.00,Wunderground v.1.15,2013-05-01 20:50:00,
2013-05-01 15:55:00,82.5,57.7,30.01,NNE,32,0.0,3.0,43,0.00,,,0.00,Wunderground v.1.15,2013-05-01 20:55:00,
2013-05-01 16:00:00,82.4,57.7,30.01,NNE,32,0.0,0.0,43,0.00,,,0.00,Wunderground v.1.15,2013-05-01 21:00:00,
2013-05-01 16:05:00,82.0,56.6,30.01,NNE,32,0.0,1.0,42,0.00,,,0.00,Wunderground v.1.15,2013-05-01 21:05:00,
2013-05-01 16:10:00,81.3,58.5,30.01,NNE,32,0.0,0.0,46,0.00,,,0.00,Wunderground v.1.15,2013-05-01 21:10:00,
2013-05-01 16:15:00,80.8,56.9,30.01,NE,40,0.0,0.0,44,0.00,,,0.00,Wunderground v.1.15,2013-05-01 21:15:00,
2013-05-01 16:20:00,80.3,56.4,30.01,NE,40,0.0,2.0,44,0.00,,,0.00,Wunderground v.1.15,2013-05-01 21:20:00,
2013-05-01 16:25:00,79.8,57.2,30.01,NE,40,0.0,2.0,46,0.00,,,0.00,Wunderground v.1.15,2013-05-01 21:25:00,
2013-05-01 16:30:00,79.4,56.2,30.01,NE,40,0.0,0.0,45,0.00,,,0.00,Wunderground v.1.15,2013-05-01 21:30:00,
2013-05-01 16:35:00,79.2,57.2,30.01,NE,40,0.0,0.0,47,0.00,,,0.00,Wunderground v.1.15,2013-05-01 21:35:00,
2013-05-01 16:40:00,79.2,57.8,30.01,NE,40,0.0,0.0,48,0.00,,,0.00,Wunderground v.1.15,2013-05-01 21:40:00,
2013-05-01 16:45:00,79.4,56.8,30.01,NE,40,0.0,0.0,46,0.00,,,0.00,Wunderground v.1.15,2013-05-01 21:45:00,
2013-05-01 16:50:00,79.2,56.6,30.01,North,5,1.0,6.0,46,0.00,,,0.00,Wunderground v.1.15,2013-05-01 21:50:00,
2013-05-01 16:54:00,79.1,56.5,30.01,NNE,17,2.0,6.0,46,0.00,,,0.00,Wunderground v.1.15,2013-05-01 21:54:00,
2013-05-01 17:00:00,79.1,57.1,30.01,NNW,348,2.0,2.0,47,0.00,,,0.00,Wunderground v.1.15,2013-05-01 22:00:00,
2013-05-01 17:05:00,79.1,57.7,30.01,NNW,348,1.0,2.0,48,0.00,,,0.00,Wunderground v.1.15,2013-05-01 22:05:00,
2013-05-01 17:10:00,79.0,56.5,30.01,North,355,1.0,2.0,46,0.00,,,0.01,Wunderground v.1.15,2013-05-01 22:10:00,
2013-05-01 17:15:00,78.7,55.6,30.01,North,355,2.0,2.0,45,0.00,,,0.01,Wunderground v.1.15,2013-05-01 22:15:00,
2013-05-01 17:20:00,78.5,57.2,30.01,North,355,1.0,1.0,48,0.00,,,0.01,Wunderground v.1.15,2013-05-01 22:20:00,
2013-05-01 17:25:00,78.2,56.3,30.01,North,355,0.0,1.0,47,0.00,,,0.01,Wunderground v.1.15,2013-05-01 22:25:00,
2013-05-01 17:30:00,78.0,56.1,30.01,North,355,0.0,0.0,47,0.00,,,0.01,Wunderground v.1.15,2013-05-01 22:30:00,
2013-05-01 17:35:00,78.0,57.3,30.01,North,355,0.0,0.0,49,0.00,,,0.01,Wunderground v.1.15,2013-05-01 22:35:00,
2013-05-01 17:40:00,78.2,58.0,30.01,North,355,0.0,0.0,50,0.00,,,0.01,Wunderground v.1.15,2013-05-01 22:40:00,
2013-05-01 17:45:00,78.3,57.6,30.01,North,355,0.0,0.0,49,0.00,,,0.01,Wunderground v.1.15,2013-05-01 22:45:00,
2013-05-01 17:50:00,78.3,57.0,30.01,North,355,1.0,1.0,48,0.00,,,0.01,Wunderground v.1.15,2013-05-01 22:50:00,
2013-05-01 17:55:00,78.4,57.7,30.01,North,355,0.0,1.0,49,0.00,,,0.01,Wunderground v.1.15,2013-05-01 22:55:00,
2013-05-01 18:00:00,78.5,57.2,30.02,North,355,0.0,0.0,48,0.00,,,0.01,Wunderground v.1.15,2013-05-01 23:00:00,
2013-05-01 18:05:00,78.3,57.0,30.02,North,355,1.0,1.0,48,0.00,,,0.01,Wunderground v.1.15,2013-05-01 23:05:00,
2013-05-01 18:10:00,78.0,56.1,30.02,NE,38,2.0,5.0,47,0.00,,,0.01,Wunderground v.1.15,2013-05-01 23:10:00,
2013-05-01 18:15:00,77.4,55.6,30.02,NNW,327,4.0,10.0,47,0.00,,,0.01,Wunderground v.1.15,2013-05-01 23:15:00,
2013-05-01 18:20:00,76.7,56.1,30.02,North,360,6.0,6.0,49,0.00,,,0.01,Wunderground v.1.15,2013-05-01 23:20:00,
2013-05-01 18:25:00,76.1,55.5,30.02,NNE,32,5.0,6.0,49,0.00,,,0.01,Wunderground v.1.15,2013-05-01 23:25:00,
2013-05-01 18:30:00,75.7,55.7,30.02,NNW,338,4.0,6.0,50,0.00,,,0.01,Wunderground v.1.15,2013-05-01 23:30:00,
2013-05-01 18:40:00,75.3,55.4,30.03,NNW,347,4.0,5.0,50,0.00,,,0.01,Wunderground v.1.15,2013-05-01 23:40:00,
2013-05-01 18:45:00,74.9,52.7,30.03,NE,36,5.0,5.0,46,0.00,,,0.01,Wunderground v.1.15,2013-05-01 23:45:00,
2013-05-01 18:50:00,74.2,52.1,30.03,NNE,26,6.0,6.0,46,0.00,,,0.01,Wunderground v.1.15,2013-05-01 23:50:00,
2013-05-01 18:55:00,73.4,51.4,30.03,NNW,340,7.0,13.0,46,0.00,,,0.01,Wunderground v.1.15,2013-05-01 23:55:00,
2013-05-01 19:00:00,72.7,50.7,30.03,NE,45,8.0,10.0,46,0.00,,,0.01,Wunderground v.1.15,2013-05-02 00:00:00,
2013-05-01 19:10:00,71.8,51.0,30.04,North,355,7.0,7.0,48,0.00,,,0.01,Wunderground v.1.15,2013-05-02 00:10:00,
2013-05-01 19:15:00,71.6,50.9,30.04,North,5,6.0,7.0,48,0.00,,,0.01,Wunderground v.1.15,2013-05-02 00:15:00,
2013-05-01 19:30:00,70.7,50.6,30.05,NE,36,8.0,8.0,49,0.00,,,0.01,Wunderground v.1.15,2013-05-02 00:30:00,
2013-05-01 19:35:00,70.1,50.0,30.05,NE,42,8.0,8.0,49,0.00,,,0.01,Wunderground v.1.15,2013-05-02 00:35:00,
2013-05-01 19:40:00,69.3,49.3,30.06,NNW,333,8.0,9.0,49,0.00,,,0.01,Wunderground v.1.15,2013-05-02 00:40:00,
2013-05-01 19:45:00,68.5,49.1,30.06,North,9,9.0,9.0,50,0.00,,,0.01,Wunderground v.1.15,2013-05-02 00:45:00,
2013-05-01 19:50:00,67.7,48.9,30.06,NNW,327,9.0,9.0,51,0.00,,,0.01,Wunderground v.1.15,2013-05-02 00:50:00,
2013-05-01 19:55:00,67.2,49.0,30.07,NNE,28,8.0,9.0,52,0.00,,,0.01,Wunderground v.1.15,2013-05-02 00:55:00,
2013-05-01 20:00:00,66.6,48.4,30.07,North,360,7.0,8.0,52,0.00,,,0.01,Wunderground v.1.15,2013-05-02 01:00:00,
2013-05-01 20:05:00,66.2,48.6,30.07,North,5,8.0,8.0,53,0.00,,,0.01,Wunderground v.1.15,2013-05-02 01:05:00,
2013-05-01 20:10:00,65.7,48.6,30.07,NE,39,8.0,8.0,54,0.00,,,0.01,Wunderground v.1.15,2013-05-02 01:10:00,
2013-05-01 20:15:00,65.2,48.1,30.08,NNE,24,8.0,8.0,54,0.00,,,0.01,Wunderground v.1.15,2013-05-02 01:15:00,
2013-05-01 20:20:00,64.6,48.1,30.08,NW,323,8.0,8.0,55,0.00,,,0.01,Wunderground v.1.15,2013-05-02 01:20:00,
2013-05-01 20:25:00,64.0,47.5,30.08,NNE,22,8.0,8.0,55,0.00,,,0.01,Wunderground v.1.15,2013-05-02 01:25:00,
2013-05-01 20:30:00,63.5,47.5,30.09,NNE,13,8.0,8.0,56,0.00,,,0.01,Wunderground v.1.15,2013-05-02 01:30:00,
2013-05-01 20:35:00,63.0,47.5,30.09,North,5,8.0,8.0,57,0.00,,,0.01,Wunderground v.1.15,2013-05-02 01:35:00,
2013-05-01 20:40:00,62.6,47.6,30.09,NNW,344,8.0,11.0,58,0.00,,,0.01,Wunderground v.1.15,2013-05-02 01:40:00,
2013-05-01 20:45:00,62.2,47.7,30.10,North,360,8.0,11.0,59,0.00,,,0.01,Wunderground v.1.15,2013-05-02 01:45:00,
2013-05-01 20:50:00,61.8,47.3,30.10,NE,37,8.0,8.0,59,0.00,,,0.01,Wunderground v.1.15,2013-05-02 01:50:00,
2013-05-01 20:55:00,61.4,47.4,30.10,NNW,336,7.0,9.0,60,0.00,,,0.01,Wunderground v.1.15,2013-05-02 01:55:00,
2013-05-01 21:00:00,61.1,47.1,30.11,North,360,8.0,10.0,60,0.00,,,0.01,Wunderground v.1.15,2013-05-02 02:00:00,
2013-05-01 21:05:00,60.8,46.8,30.11,NNE,27,9.0,10.0,60,0.00,,,0.01,Wunderground v.1.15,2013-05-02 02:05:00,
2013-05-01 21:10:00,60.6,47.1,30.11,NW,314,8.0,15.0,61,0.00,,,0.01,Wunderground v.1.15,2013-05-02 02:10:00,
2013-05-01 21:15:00,60.3,46.8,30.12,North,360,8.0,15.0,61,0.00,,,0.01,Wunderground v.1.15,2013-05-02 02:15:00,
2013-05-01 21:20:00,60.0,46.5,30.12,North,360,8.0,8.0,61,0.00,,,0.01,Wunderground v.1.15,2013-05-02 02:20:00,
2013-05-01 21:25:00,59.7,46.2,30.12,NNE,20,8.0,8.0,61,0.00,,,0.01,Wunderground v.1.15,2013-05-02 02:25:00,
2013-05-01 21:30:00,59.5,46.5,30.12,North,350,9.0,9.0,62,0.00,,,0.01,Wunderground v.1.15,2013-05-02 02:30:00,
2013-05-01 21:40:00,59.0,46.0,30.12,NNE,22,8.0,9.0,62,0.00,,,0.01,Wunderground v.1.15,2013-05-02 02:40:00,
2013-05-01 21:45:00,59.0,46.0,30.12,NNE,33,8.0,11.0,62,0.00,,,0.01,Wunderground v.1.15,2013-05-02 02:45:00,
2013-05-01 21:50:00,58.9,45.9,30.12,NE,36,8.0,11.0,62,0.00,,,0.01,Wunderground v.1.15,2013-05-02 02:50:00,
2013-05-01 21:55:00,58.5,45.5,30.13,North,5,8.0,11.0,62,0.00,,,0.01,Wunderground v.1.15,2013-05-02 02:55:00,
2013-05-01 22:00:00,57.6,45.1,30.13,North,5,8.0,8.0,63,0.00,,,0.01,Wunderground v.1.15,2013-05-02 03:00:00,
2013-05-01 22:05:00,56.8,44.7,30.13,NNW,346,7.0,8.0,64,0.00,,,0.01,Wunderground v.1.15,2013-05-02 03:05:00,
2013-05-01 22:10:00,56.1,44.5,30.13,NNW,340,6.0,7.0,65,0.00,,,0.01,Wunderground v.1.15,2013-05-02 03:10:00,
2013-05-01 22:20:00,54.5,43.4,30.14,NNE,27,9.0,9.0,66,0.00,,,0.01,Wunderground v.1.15,2013-05-02 03:20:00,
2013-05-01 22:24:00,53.8,43.1,30.14,NNW,338,9.0,13.0,67,0.00,,,0.01,Wunderground v.1.15,2013-05-02 03:24:00,
2013-05-01 22:30:00,53.1,43.2,30.14,NNW,344,9.0,9.0,69,0.00,,,0.01,Wunderground v.1.15,2013-05-02 03:30:00,
2013-05-01 22:40:00,52.4,42.9,30.15,NNW,344,10.0,10.0,70,0.00,,,0.01,Wunderground v.1.15,2013-05-02 03:40:00,
2013-05-01 22:50:00,51.9,42.8,30.15,NNW,327,8.0,8.0,71,0.00,,,0.01,Wunderground v.1.15,2013-05-02 03:50:00,
2013-05-01 22:55:00,51.6,42.5,30.15,NNW,342,6.0,8.0,71,0.00,,,0.01,Wunderground v.1.15,2013-05-02 03:55:00,
2013-05-01 23:00:00,51.4,42.7,30.15,North,360,6.0,7.0,72,0.00,,,0.01,Wunderground v.1.15,2013-05-02 04:00:00,
2013-05-01 23:05:00,51.2,42.5,30.15,North,360,6.0,11.0,72,0.00,,,0.01,Wunderground v.1.15,2013-05-02 04:05:00,
2013-05-01 23:10:00,51.0,42.3,30.15,NNW,348,7.0,10.0,72,0.00,,,0.01,Wunderground v.1.15,2013-05-02 04:10:00,
2013-05-01 23:15:00,50.9,42.2,30.15,North,5,9.0,10.0,72,0.00,,,0.01,Wunderground v.1.15,2013-05-02 04:15:00,
2013-05-01 23:20:00,50.8,42.5,30.15,North,5,8.0,8.0,73,0.00,,,0.01,Wunderground v.1.15,2013-05-02 04:20:00,
2013-05-01 23:25:00,50.7,42.4,30.15,NNE,33,5.0,11.0,73,0.00,,,0.01,Wunderground v.1.15,2013-05-02 04:25:00,
2013-05-01 23:35:00,50.6,42.3,30.16,North,5,6.0,8.0,73,0.00,,,0.01,Wunderground v.1.15,2013-05-02 04:35:00,
2013-05-01 23:40:00,50.6,42.3,30.16,North,360,6.0,9.0,73,0.00,,,0.01,Wunderground v.1.15,2013-05-02 04:40:00,
2013-05-01 23:50:00,50.5,42.2,30.16,NNE,26,6.0,6.0,73,0.00,,,0.01,Wunderground v.1.15,2013-05-02 04:50:00,
2013-05-01 23:55:00,50.4,42.1,30.16,NE,42,6.0,7.0,73,0.00,,,0.01,Wunderground v.1.15,2013-05-02 04:55:00,